Regional Weather Roundup
Issued by NWS

Home | Current Version | Previous Version | Text Only | Print | Product List | Glossary Off
Versions: 1 2 3 4 5 6 7 8 9 10 11 12 13 14 15 16 17 18 19 20 21 22 23 24 25 26 27 28 29 30 31 32 33 34 35 36 37 38 39 40 41 42 43 44 45 46 47 48

000
ASUS45 KBOU 200607
RWRCO

WEATHER ROUNDUP FOR COLORADO
NATIONAL WEATHER SERVICE DENVER/BOULDER CO
1200 AM MDT SAT SEP 20 2014

NOTE: "FAIR" INDICATES FEW OR NO CLOUDS BELOW 12000 FEET WITH NO
SIGNIFICANT WEATHER AND/OR OBSTRUCTIONS TO VISIBILITY.

COZ001>005-013-030-031-200700-
...NORTHWEST COLORADO...

CITY           SKY/WX    TMP DP  RH WIND       PRES   REMARKS
CRAIG          CLEAR     52  43  71 CALM      30.20R
HAYDEN         CLEAR     55  39  54 CALM      30.22R
MEEKER         CLEAR     56  44  64 E3        30.21
MOUNT WERNER   NOT AVBL
STEAMBOAT SPGS CLEAR     54  44  68 CALM      30.24R
WALDEN         PTCLDY    46  37  71 SE6       30.31R
$$

COZ006>008-011-200700-
...WEST CENTRAL VALLEYS...

CITY           SKY/WX    TMP DP  RH WIND       PRES   REMARKS
GRAND JUNCTION CLEAR     70  43  37 CALM      30.04S
MONTROSE       CLEAR     61  46  57 SE7       30.13R
EAGLE          CLEAR     57  43  58 CALM      30.23R
RIFLE          CLEAR     60  44  55 E6        30.12R
DELTA          CLEAR     65  44  46 NE8       30.08S
NUCLA          CLEAR     63  45  51 E10       30.16S
$$

COZ017>023-064>068-200700-
...SOUTHWEST COLORADO...

CITY           SKY/WX    TMP DP  RH WIND       PRES   REMARKS
DURANGO        CLEAR     59  45  59 N5        30.15S
CORTEZ         CLEAR     56  47  71 E3        30.12R
PAGOSA SPRINGS CLEAR     55  45  69 CALM      30.24R
TELLURIDE      NOT AVBL
WOLF CREEK PAS CLEAR     46  32  57 NE17      30.54S
$$

COZ009-010-012-014-032>034-037-058>063-200700-
...CENTRAL COLORADO...

CITY           SKY/WX    TMP DP  RH WIND       PRES   REMARKS
ASPEN          PTCLDY    52  40  63 S9        30.28R
BUENA VISTA    CLEAR     54  39  58 NW6       30.29R
COPPER MTN     CLEAR     52  36  54 W8        30.59S
BERTHOUD PASS  FAIR      41  39  93 NW10      30.63S
COTTONWOOD PAS CLEAR     59  32  36 W6        30.42S
GUNNISON       CLEAR     52  37  58 CALM      30.29R
KREMMLING      MOCLDY    52  41  66 CALM      30.29R
LEADVILLE      CLEAR     46  33  60 N5        30.42S
MONARCH PASS   CLEAR     48  32  53 E13       30.66R
SALIDA         CLEAR     57  40  53 W6        30.33R
SUNLIGHT       CLEAR     54  39  58 NE3       30.51S
WILKERSON PASS NOT AVBL
$$

COZ069>075-200700-
...SAN LUIS VALLEY/SANGRE DE CRISTO MOUNTAINS...

CITY           SKY/WX    TMP DP  RH WIND       PRES   REMARKS
ALAMOSA        CLEAR     55  34  45 E5        30.22R
LA VETA PASS   CLEAR     54  27  35 NE6       30.42S
SAGUACHE       NOT AVBL
$$

COZ035-036-038>040-200700-
...NORTHERN COLORADO FRONT RANGE...

CITY           SKY/WX    TMP DP  RH WIND       PRES   REMARKS
DENVER INTL AP PTCLDY    64  47  53 S9        30.09R
DMNS CITY PARK   N/A     64  51  63 W2        30.10F
AURORA         PTCLDY    64  46  53 E8        30.11F
FRONT RANGE AP PTCLDY    63  50  63 S7        30.10F
ERIE MUNI ARPT PTCLDY    65  49  54 SW5       30.08F
BOULDER MUN AP PTCLDY    68  45  42 SW6       30.09F
CENTENNIAL     PTCLDY    63  46  54 S6        30.13R
BROOMFIELD     PTCLDY    64  48  55 S3        30.13S
FORT COLLINS   PTCLDY    63  52  67 S8        30.07S
LONGMONT       PTCLDY    62  50  64 NW3       30.09S
$$

COZ041-046-047-076>085-087-088-200700-
...PIKES PEAK/PALMER DIVIDE AND SOUTHERN FOOTHILLS...

CITY           SKY/WX    TMP DP  RH WIND       PRES   REMARKS
COLO. SPRINGS  PTCLDY    63  40  42 N8        30.13R
A. F. ACADEMY  CLEAR     58  39  48 N13       30.16R
ELLICOTT       NOT AVBL
FALCON         CLEAR     62  38  41 N12       30.18S
FORT CARSON    CLEAR     64  42  44 NW8       30.09R
LIMON          MOCLDY    59  44  57 N8        30.08R
MONUMENT HILL  CLEAR     59  41  51 N6        30.21R
TRINIDAD       CLEAR     68  56  65 W21G29    30.06R
$$

COZ042>045-048>051-090-091-200700-
...NORTHEAST COLORADO...

CITY           SKY/WX    TMP DP  RH WIND       PRES   REMARKS
GREELEY ARPT   PTCLDY    63  48  59 W5        30.05
AKRON          CLOUDY    66  54  65 S13       30.02S
BURLINGTON     CLEAR     65  59  81 S8        30.01R
WRAY           CLOUDY    77  56  48 SW9       29.92R
STERLING       CLOUDY    64  59  82 N3        29.94S
HOLYOKE        CLOUDY    70  52  52 NW6       29.93R
FORT MORGAN    CLOUDY    65  52  62 W7        30.00S
$$

COZ086-089-092>099-200700-
...SOUTHEAST COLORADO...

CITY           SKY/WX    TMP DP  RH WIND       PRES   REMARKS
PUEBLO         CLEAR     60  37  42 N3        30.00R
LA JUNTA       CLEAR     69  55  60 CALM      29.95F
LAMAR          CLEAR     67  61  81 S5        29.94R
SPRINGFIELD      N/A     64  62  93 S20       30.01F
$$


USA.gov is the U.S. government's official web portal to all federal, state and local government web resources and services.